EBCI

Brussels South Charleroi Airport

Airport
ICAO code
EBCI
Summary
ICAO Region
EUR
ICAO Territory
Location

Charleroi,

Coordinates
50° 27' 46" N , 4° 27' 42" E
KCC
Metar
Observation
EBCI 311850Z 24010KT 9999 BKN007 06/05 Q1024 NOSIG
Station
Charleroi / Gosselies
Date/Time
2023-01-31 19:50:00
Wind direction
240°
Wind speed
10 kts
Lowest cloud amount
broken clouds
Temperature
6°C
Dew point
5°C
Humidity
93%
QNH
1024 hPa
Weather condition
n/a

Description

Charleroi airport is an international airport located in Gosselies, 46 km south of Brussels.

Climatology

Temperate Marine climate/Oceanic climate (Köppen climate classification Cfb). Moderately cool summer and comparatively warm winter with a temperature range of only 14°C. Prevailing south-westerly winds from the Atlantic Ocean.

Runways

Designator Length Width Surface Rops
7/25 2550 45 ASP Yes/Yes

Airport map

Aerial View

SKYbrary Partners:

Safety knowledge contributed by: